Location: Unspecified
(0.0000°N, 0.0000°E)
Time: 06:51:49
(UTC+00:00)

Explorer 11/Cluster Stage 4 - Pass Details

Date: 25 September 2019
Orbit: 467 x 1259 km, 28.8° (Epoch: 14 October)

Event Time Altitude Azimuth Distance (km) Brightness Sun altitude
Rises 18:23:00 0° 275° (W) 4,197 12.7 -7.8°
Reaches altitude 10° 18:27:00 10° 291° (WNW) 3,218 11.0 -8.8°
Maximum altitude 18:32:25 19° 333° (NNW) 2,523 9.5 -10.2°
Drops below altitude 10° 18:37:33 10° 16° (NNE) 3,013 9.4 -11.5°
Sets 18:41:09 0° 33° (NNE) 3,844 9.8 -12.4°
